EW9451 Weather Reports


Display with metric or nautical units.
time (UTC)temp
F
wind
direction
speed
MPH
gust
MPH
rain 1hr
in
rain 24hr
in
rain mn
in
humidity
%
barometer
mb
20260505215048 61 269 0.0 3.0 0.00 0.35 0.35 91 998.3
20260505214548 60 270 0.0 6.0 0.00 0.35 0.35 91 998.0
20260505214051 59 269 1.0 7.0 0.00 0.35 0.35 91 998.0
20260505213548 59 237 1.0 7.0 0.00 0.35 0.35 90 998.0
20260505213049 59 133 0.0 4.0 0.01 0.35 0.35 91 998.1
20260505212548 59 123 1.0 7.0 0.01 0.35 0.35 90 998.1
20260505212047 59 148 2.0 7.0 0.02 0.35 0.35 89 998.2
20260505211547 59 115 3.0 7.0 0.04 0.35 0.35 91 998.1
20260505211047 60 130 1.0 7.0 0.05 0.35 0.35 91 997.9
20260505210548 60 126 2.0 7.0 0.06 0.35 0.35 92 997.7
20260505210047 60 146 1.0 3.0 0.06 0.35 0.35 92 997.7
20260505205548 60 162 1.0 3.0 0.06 0.35 0.35 91 997.5
20260505205046 60 118 1.0 4.0 0.06 0.35 0.35 92 997.6
20260505204551 60 160 2.0 6.0 0.06 0.35 0.35 92 997.6
20260505204046 60 140 2.0 6.0 0.06 0.35 0.35 90 997.7
20260505203546 59 169 1.0 7.0 0.06 0.35 0.35 90 997.7
20260505203055 59 213 2.0 10.0 0.05 0.34 0.34 90 997.7
20260505202545 59 262 1.0 10.0 0.07 0.34 0.34 90 997.8
20260505202045 59 24 2.0 9.0 0.09 0.33 0.33 92 998.1
20260505201547 60 317 2.0 5.0 0.07 0.31 0.31 92 997.9
20260505201044 60 178 2.0 8.0 0.06 0.30 0.30 93 997.7
20260505200545 60 319 3.0 8.0 0.05 0.28 0.28 94 997.6
20260505200046 61 319 3.0 5.0 0.05 0.28 0.28 94 997.1
20260505195546 61 115 1.0 2.0 0.21 0.28 0.28 94 996.1
20260505195047 61 115 0.0 2.0 0.23 0.28 0.28 94 996.1
20260505194554 61 115 0.0 3.0 0.23 0.28 0.28 94 996.0
20260505194043 60 102 1.0 4.0 0.26 0.28 0.28 93 996.1
20260505193541 60 156 1.0 4.0 0.28 0.28 0.28 93 996.2
20260505193042 60 207 1.0 3.0 0.28 0.28 0.28 92 996.9
20260505192541 60 180 1.0 8.0 0.25 0.25 0.25 92 996.9
20260505192040 61 332 3.0 8.0 0.24 0.24 0.24 92 996.9
20260505191553 61 325 4.0 6.0 0.24 0.24 0.24 92 996.6
20260505191040 60 337 2.0 5.0 0.24 0.24 0.24 91 996.6
20260505190541 61 355 2.0 11.0 0.24 0.24 0.24 89 996.7
20260505190041 61 77 3.0 14.0 0.23 0.23 0.23 86 997.1
20260505185540 62 182 7.0 14.0 0.07 0.07 0.07 86 996.7
20260505185037 64 10 3.0 19.0 0.06 0.06 0.06 83 995.0
20260505184537 66 46 2.0 19.0 0.06 0.06 0.06 77 995.2
20260505184034 70 336 2.0 11.0 0.03 0.03 0.03 66 995.3
20260505183533 72 154 1.0 10.0 0.00 0.00 0.00 57 994.8
20260505183034 72 221 3.0 14.0 0.00 0.00 0.00 53 994.7
20260505182533 72 243 5.0 16.0 0.00 0.00 0.00 54 994.6
20260505182032 72 219 4.0 16.0 0.00 0.00 0.00 54 994.6
20260505181537 73 107 4.0 18.0 0.00 0.00 0.00 53 994.7
20260505181032 73 167 6.0 18.0 0.00 0.00 0.00 50 994.5
20260505180533 73 144 4.0 12.0 0.00 0.00 0.00 51 994.8
20260505180043 73 167 5.0 13.0 0.00 0.00 0.00 51 994.8
20260505175531 73 119 7.0 16.0 0.00 0.00 0.00 50 994.9
20260505175031 73 59 6.0 16.0 0.00 0.00 0.00 48 994.8
20260505174533 74 146 4.0 22.0 0.00 0.00 0.00 49 994.8
20260505174034 74 144 7.0 22.0 0.00 0.00 0.00 47 994.8
20260505173533 75 165 7.0 20.0 0.00 0.00 0.00 47 994.9
20260505173030 75 165 6.0 23.0 0.00 0.00 0.00 47 994.9
20260505172529 75 198 6.0 23.0 0.00 0.00 0.00 47 994.8
20260505172029 75 132 6.0 18.0 0.00 0.00 0.00 48 994.9
20260505171529 75 76 8.0 18.0 0.00 0.00 0.00 47 995.0
20260505171028 75 194 8.0 20.0 0.00 0.00 0.00 49 995.0
20260505170528 75 169 11.0 20.0 0.00 0.00 0.00 48 995.0
20260505170028 76 173 7.0 19.0 0.00 0.00 0.00 47 995.0
20260505165526 75 49 5.0 16.0 0.00 0.00 0.00 48 995.2
20260505165025 75 185 5.0 16.0 0.00 0.00 0.00 48 995.3
20260505164523 74 257 4.0 17.0 0.00 0.00 0.00 51 995.4
20260505164024 74 155 5.0 23.0 0.00 0.00 0.00 51 995.5
20260505163522 74 200 8.0 23.0 0.00 0.00 0.00 50 995.9
20260505163021 74 160 5.0 19.0 0.00 0.00 0.00 50 996.2
20260505162519 74 132 6.0 21.0 0.00 0.00 0.00 50 996.3
20260505162022 74 143 9.0 21.0 0.00 0.00 0.00 50 996.2
20260505161518 74 100 7.0 21.0 0.00 0.00 0.00 50 996.4
20260505161017 74 205 4.0 21.0 0.00 0.00 0.00 51 996.5
20260505160517 74 163 7.0 18.0 0.00 0.01 0.00 51 996.5
20260505153010 71 158 7.0 21.0 0.00 0.01 0.00 53 997.1
20260505152509 71 116 7.0 31.0 0.00 0.01 0.00 55 997.2
20260505152010 70 27 7.0 31.0 0.00 0.01 0.00 54 997.4
20260505151512 71 277 9.0 23.0 0.00 0.01 0.00 52 997.2
20260505151009 71 174 5.0 23.0 0.00 0.01 0.00 54 997.3
20260505150507 70 178 8.0 23.0 0.00 0.08 0.00 54 997.2
20260505140600 65 122 5.0 20.0 0.00 0.08 0.00 59 997.8
20260505124552 62 167 3.0 16.0 0.00 0.10 0.00 57 998.5
20260505124049 62 161 6.0 16.0 0.00 0.10 0.00 57 998.4
20260505123542 62 182 7.0 17.0 0.00 0.10 0.00 57 998.4
20260505123053 62 217 7.0 17.0 0.00 0.10 0.00 57 998.5
20260505122542 62 360 5.0 15.0 0.00 0.10 0.00 58 998.5
20260505122041 62 213 5.0 15.0 0.00 0.10 0.00 58 998.4
20260505121612 62 207 6.0 15.0 0.00 0.10 0.00 58 998.6
20260505121040 62 140 4.0 12.0 0.00 0.10 0.00 57 998.4
20260505120540 62 151 5.0 12.0 0.00 0.11 0.00 57 998.3
20260505120040 62 167 3.0 13.0 0.00 0.11 0.00 57 998.3
20260505115540 62 169 5.0 21.0 0.00 0.11 0.00 57 998.2
20260505115039 61 296 4.0 23.0 0.00 0.11 0.00 58 998.2
20260505114537 61 216 5.0 14.0 0.00 0.11 0.00 57 998.1
20260505114038 61 184 6.0 15.0 0.00 0.11 0.00 57 998.1
20260505113536 61 173 4.0 17.0 0.00 0.11 0.00 58 998.3
20260505113038 61 192 4.0 15.0 0.00 0.11 0.00 58 998.2
20260505112537 61 123 5.0 14.0 0.00 0.11 0.00 58 998.5
20260505112034 61 214 5.0 15.0 0.00 0.11 0.00 58 998.4
20260505111539 61 141 5.0 15.0 0.00 0.11 0.00 58 998.4
20260505111036 60 110 4.0 12.0 0.00 0.11 0.00 58 998.3
20260505110534 60 112 5.0 12.0 0.00 0.11 0.00 58 998.3
20260505102030 60 171 4.0 14.0 0.00 0.11 0.00 58 998.1
20260505101530 60 236 5.0 14.0 0.00 0.11 0.00 58 998.2
20260505101028 60 223 4.0 12.0 0.00 0.11 0.00 56 998.4
20260505100530 60 164 4.0 16.0 0.00 0.11 0.00 57 998.4
20260505100037 60 187 5.0 16.0 0.00 0.11 0.00 57 998.4
20260505095530 60 136 3.0 15.0 0.00 0.11 0.00 57 998.5
20260505095029 60 186 5.0 15.0 0.00 0.11 0.00 56 998.4
20260505094528 60 129 6.0 15.0 0.00 0.11 0.00 56 998.4
20260505094027 60 223 5.0 14.0 0.00 0.11 0.00 56 998.4
20260505093526 60 106 5.0 12.0 0.00 0.11 0.00 56 998.4
20260505093029 60 138 4.0 9.0 0.00 0.11 0.00 56 998.5
20260505092525 60 191 2.0 10.0 0.00 0.11 0.00 57 998.5
20260505092023 60 128 4.0 11.0 0.00 0.11 0.00 57 998.5
20260505091532 60 107 4.0 12.0 0.00 0.11 0.00 56 998.2
20260505091023 60 146 3.0 13.0 0.00 0.11 0.00 56 998.3
20260505090524 60 163 4.0 13.0 0.00 0.11 0.00 57 998.3
20260505090022 59 168 4.0 12.0 0.00 0.11 0.00 56 998.5
20260505085522 59 132 5.0 12.0 0.00 0.11 0.00 56 998.4
20260505085024 60 157 2.0 15.0 0.00 0.11 0.00 56 998.7
20260505084524 60 136 4.0 15.0 0.00 0.11 0.00 56 998.6
20260505084020 59 259 6.0 13.0 0.00 0.11 0.00 56 998.6
20260505083521 59 100 5.0 12.0 0.00 0.11 0.00 56 998.8
20260505083032 59 118 2.0 12.0 0.00 0.11 0.00 56 998.8
20260505082519 59 151 3.0 12.0 0.00 0.11 0.00 57 998.9
20260505082118 59 103 5.0 12.0 0.00 0.11 0.00 56 998.7
20260505081521 59 127 4.0 12.0 0.00 0.11 0.00 56 998.7
20260505081019 59 184 3.0 12.0 0.00 0.11 0.00 56 998.8
20260505080517 59 157 4.0 10.0 0.00 0.11 0.00 56 998.8
20260505080018 59 177 3.0 9.0 0.00 0.11 0.00 55 998.9
20260505075517 59 209 4.0 9.0 0.00 0.11 0.00 56 998.7
20260505075016 59 166 4.0 9.0 0.00 0.11 0.00 56 998.6
20260505074516 60 174 4.0 12.0 0.00 0.11 0.00 55 998.6
20260505074019 60 81 4.0 12.0 0.00 0.11 0.00 55 998.6
20260505073515 60 168 4.0 10.0 0.00 0.11 0.00 54 998.6
20260505073014 60 188 4.0 12.0 0.00 0.11 0.00 54 998.6
20260505072514 60 118 4.0 16.0 0.00 0.11 0.00 53 998.6
20260505072014 60 180 5.0 16.0 0.00 0.11 0.00 53 998.7
20260505071513 60 144 7.0 14.0 0.00 0.11 0.00 53 998.6
20260505071013 60 180 4.0 13.0 0.00 0.11 0.00 53 998.7
20260505070512 60 165 6.0 13.0 0.00 0.11 0.00 53 998.7
20260505070011 60 168 6.0 15.0 0.00 0.11 0.00 53 998.8
20260505065511 60 215 5.0 13.0 0.00 0.11 0.00 53 998.7
20260505065015 60 184 1.0 14.0 0.00 0.11 0.00 54 998.9
20260505064510 60 192 3.0 14.0 0.00 0.11 0.00 53 998.7
20260505064009 60 141 4.0 13.0 0.00 0.11 0.00 53 998.8
20260505063509 60 181 4.0 10.0 0.00 0.11 0.00 52 998.7
20260505063014 60 155 4.0 10.0 0.00 0.11 0.00 53 998.7
20260505062509 60 190 4.0 11.0 0.00 0.11 0.00 53 998.6
20260505062008 60 154 5.0 11.0 0.00 0.11 0.00 52 998.6
20260505061507 60 173 2.0 9.0 0.00 0.11 0.00 53 998.5
20260505061007 60 221 4.0 14.0 0.00 0.11 0.00 52 998.5
20260505060507 59 125 5.0 14.0 0.00 0.11 0.00 52 998.5
20260505060007 59 122 3.0 11.0 0.00 0.11 0.00 54 998.5
20260505055505 59 186 2.0 10.0 0.00 0.11 0.00 53 998.5
20260505055006 59 157 2.0 10.0 0.00 0.11 0.00 53 998.6
20260505054506 59 179 2.0 7.0 0.00 0.11 0.00 53 998.6
20260505054004 59 148 2.0 9.0 0.00 0.11 0.00 53 998.7
20260505053503 59 172 4.0 10.0 0.00 0.11 0.00 53 998.7
20260505053001 59 146 4.0 10.0 0.00 0.11 0.00 53 998.8
20260505052501 59 153 1.0 7.0 0.00 0.11 0.00 54 998.8
20260505052100 59 140 2.0 8.0 0.00 0.11 0.00 53 998.9
20260505051600 59 179 4.0 8.0 0.00 0.11 0.00 53 998.8
20260505051059 59 151 2.0 6.0 0.00 0.11 0.00 53 998.8
20260505050601 59 178 1.0 8.0 0.00 0.11 0.00 53 998.9
20260505041605 59 215 2.0 8.0 0.00 0.11 0.00 54 999.0
20260505041054 59 130 1.0 8.0 0.00 0.11 0.00 55 999.1
20260505040553 60 185 1.0 7.0 0.00 0.11 0.00 54 999.1
20260505040053 60 178 3.0 10.0 0.00 0.11 0.11 54 999.1
20260505035552 60 151 1.0 10.0 0.00 0.11 0.11 54 999.0
20260505035053 59 161 3.0 7.0 0.00 0.11 0.11 55 999.1
20260505034552 59 155 2.0 6.0 0.00 0.11 0.11 54 999.1
20260505034052 60 162 1.0 5.0 0.00 0.11 0.11 54 999.1
20260505033551 60 206 1.0 5.0 0.00 0.11 0.11 54 999.1
20260505033051 60 180 1.0 5.0 0.00 0.11 0.11 54 999.1
20260505032552 60 194 1.0 5.0 0.00 0.11 0.11 54 999.2
20260505032054 60 185 1.0 5.0 0.00 0.11 0.11 54 999.2
20260505031553 59 173 3.0 5.0 0.00 0.11 0.11 54 999.2
20260505031050 59 136 1.0 6.0 0.00 0.11 0.11 55 999.3
20260505030550 59 155 1.0 7.0 0.00 0.11 0.11 55 999.3
20260505030101 59 134 3.0 7.0 0.00 0.11 0.11 55 999.4
20260505025550 59 166 2.0 7.0 0.00 0.11 0.11 55 999.4
20260505025051 58 157 1.0 7.0 0.00 0.11 0.11 56 999.4
20260505024554 58 195 1.0 5.0 0.00 0.11 0.11 57 999.4
20260505024050 58 167 2.0 5.0 0.00 0.11 0.11 57 999.4
20260505023549 58 158 1.0 4.0 0.00 0.11 0.11 57 999.5
20260505023050 58 170 1.0 5.0 0.00 0.11 0.11 57 999.5
20260505022549 58 190 1.0 5.0 0.00 0.11 0.11 57 999.6
20260505022049 57 210 1.0 5.0 0.00 0.11 0.11 57 999.6
20260505021554 57 123 1.0 4.0 0.00 0.11 0.11 58 999.6
20260505021048 58 153 0.0 4.0 0.00 0.11 0.11 57 999.6
20260505020548 58 155 0.0 5.0 0.00 0.11 0.11 58 999.7
20260505020058 57 171 0.0 2.0 0.00 0.11 0.11 58 999.7
20260505015549 58 146 0.0 2.0 0.00 0.11 0.11 58 999.6
20260505015049 58 149 0.0 1.0 0.00 0.11 0.11 57 999.6
20260505014548 58 149 0.0 2.0 0.00 0.11 0.11 57 999.7
20260505014048 58 149 0.0 2.0 0.00 0.11 0.11 57 999.7
20260505013551 58 143 0.0 2.0 0.00 0.11 0.11 58 999.6
20260505013048 57 142 0.0 3.0 0.00 0.11 0.11 58 999.6
20260505012548 57 131 1.0 3.0 0.00 0.11 0.11 59 999.6
20260505012047 58 153 0.0 2.0 0.00 0.11 0.11 59 999.6
20260505011547 58 153 0.0 2.0 0.00 0.11 0.11 59 999.5
20260505011047 58 153 0.0 2.0 0.00 0.11 0.11 58 999.6
20260505010548 58 153 0.0 2.0 0.00 0.11 0.11 58 999.6
20260505010105 58 134 0.0 2.0 0.00 0.11 0.11 59 999.5
20260505005546 58 134 1.0 2.0 0.00 0.11 0.11 58 999.5
20260505005046 59 134 1.0 2.0 0.00 0.11 0.11 58 999.5
20260505004546 59 134 0.0 2.0 0.00 0.11 0.11 58 999.5
20260505004045 59 134 0.0 2.0 0.00 0.11 0.11 58 999.5
20260505003545 60 134 1.0 2.0 0.00 0.11 0.11 56 999.4
20260505003050 60 134 1.0 3.0 0.00 0.11 0.11 56 999.3
20260505002548 60 134 1.0 3.0 0.00 0.11 0.11 55 999.3
20260505002046 60 121 1.0 3.0 0.00 0.11 0.11 55 999.3
20260505001545 61 153 1.0 4.0 0.00 0.11 0.11 56 999.3
20260505001047 61 136 1.0 3.0 0.00 0.11 0.11 54 999.2
20260505000544 62 134 1.0 3.0 0.00 0.11 0.11 53 999.2
20260505000052 62 146 1.0 3.0 0.00 0.11 0.11 52 999.1
20260504235548 63 144 1.0 3.0 0.00 0.11 0.11 52 999.1
20260504235144 63 146 1.0 4.0 0.00 0.11 0.11 51 999.0
20260504234543 64 140 2.0 4.0 0.00 0.11 0.11 49 999.0
20260504234043 64 157 0.0 4.0 0.00 0.11 0.11 49 999.0
20260504233546 64 162 1.0 4.0 0.00 0.11 0.11 47 998.8
20260504233050 65 167 1.0 4.0 0.00 0.11 0.11 47 998.7
20260504232544 65 219 1.0 5.0 0.00 0.11 0.11 47 998.6
20260504232041 65 214 1.0 5.0 0.00 0.11 0.11 47 998.6
20260504231541 65 253 1.0 4.0 0.00 0.11 0.11 46 998.5
20260504231041 66 355 0.0 4.0 0.00 0.11 0.11 46 998.4
20260504230542 66 161 1.0 4.0 0.00 0.11 0.11 47 998.4
20260504230058 66 212 0.0 4.0 0.00 0.11 0.11 46 998.3
20260504225543 66 213 1.0 4.0 0.00 0.11 0.11 46 998.3
20260504225044 66 222 2.0 4.0 0.00 0.11 0.11 46 998.3
20260504224556 66 345 0.0 7.0 0.00 0.11 0.11 47 998.2
20260504224039 66 194 1.0 7.0 0.00 0.11 0.11 47 998.1
20260504223539 66 150 0.0 4.0 0.00 0.11 0.11 50 998.1
20260504223039 66 275 0.0 8.0 0.00 0.11 0.11 49 998.0
20260504222540 66 309 2.0 8.0 0.00 0.11 0.11 47 998.0
20260504222038 66 209 2.0 6.0 0.00 0.11 0.11 47 998.0
20260504221539 66 108 1.0 4.0 0.00 0.11 0.11 48 998.1
20260504221037 66 296 1.0 4.0 0.00 0.11 0.11 49 998.2
20260504220537 66 137 1.0 4.0 0.00 0.11 0.11 48 998.1
20260504220040 66 167 2.0 6.0 0.00 0.11 0.11 47 998.1
20260504215536 66 138 0.0 6.0 0.00 0.11 0.11 48 998.1